Location: Cran-Gévrier
(45.9039°N, 6.1012°E)
Time: 05:32:30
(UTC+00:00)

Iridium 2 - Pass Details

Date: 09 February 2023
Orbit: 468 x 477 km, 85.5° (Epoch: 29 March)

Event Time Altitude Azimuth Distance (km) Brightness Sun altitude
Rises 18:39:50 0° 352° (N) 2,549 7.3 -19.1°
Reaches altitude 10° 18:41:56 10° 349° (N) 1,669 6.4 -19.4°
Maximum altitude 18:45:32 64° 268° (W) 543 4.0 -20.1°
Drops below altitude 10° 18:49:08 10° 187° (S) 1,671 6.3 -20.7°
Sets 18:51:15 0° 184° (S) 2,552 7.3 -21.0°
